Location: Bourg-d�Oueil
(42.8588°N, 0.4991°E)
Time: 19:21:45
(UTC+00:00)

X-37B - Visible Passes

Search period start: 08 December 2022 00:00
Search period end: 18 December 2022 00:00
Orbit: 277 x 277 km, 45.0° (Epoch: 01 November)

Date Brightness Start Highest point End Pass type
(mag) Time Alt. Az. Time Alt. Az. Time Alt. Az.
08 Dec 1.2 17:30:13 10° SW 17:32:24 29° SSE 17:33:21 21° ESE visible
09 Dec 0.3 17:30:38 10° SW 17:33:01 51° SSE 17:34:03 27° E visible
10 Dec -0.2 17:31:14 10° WSW 17:33:41 85° SSE 17:34:42 30° ENE visible
11 Dec 0.0 17:31:56 10° W 17:34:23 66° NNW 17:35:21 31° ENE visible
12 Dec 0.3 17:32:42 10° W 17:35:07 51° N 17:36:00 31° NE visible
13 Dec 0.4 17:33:28 10° WNW 17:35:51 46° N 17:36:40 31° NE visible
14 Dec 0.3 17:34:12 10° WNW 17:36:36 47° N 17:37:22 32° ENE visible
15 Dec 0.1 17:34:55 10° WNW 17:37:21 56° N 17:38:09 34° ENE visible
16 Dec -0.2 17:35:36 10° WNW 17:38:04 76° NNE 17:39:02 31° E visible
17 Dec 0.1 17:36:18 10° WNW 17:38:45 70° SSW 17:40:03 23° ESE visible
